Hourly Data Report for October 06, 2017

All times are specified in Local Standard Time (LST). Add 1 hour to adjust for Daylight Saving Time where and when it is observed.

INGONISH BEACH RCS
NOVA SCOTIA

46°39'46.001" N
60°24'23.000" W
10.00 m
8202502
71027
XIB

Download Data

Hourly Data (October 2017)
Hourly Data Report for October 6, 2017
Temp Definition
°C
Dew Point Temp Definition
°C
Rel Hum Definition
%
Wind Dir Definition
10's deg

Wind Spd Definition
km/h
Visibility Definition
km
Stn Press Definition
kPa
Hmdx Definition


Wind Chill Definition


Weather Definition


TIME
00:00 7.1 5.2 88 24 4   101.13     LegendNANA
01:00 7.4 5.5 88 24 8   101.08     LegendNANA
02:00 11.9 6.5 70 25 17   101.05     LegendNANA
03:00 10.2 6.3 77 25 9   101.03     LegendNANA
04:00 8.9 6.2 83 24 8   101.05     LegendNANA
05:00 11.5 6.5 71 25 7   101.06     LegendNANA
06:00 8.2 5.8 85 23 7   101.11     LegendNANA
07:00 9.1 7.0 87 23 5   101.14     LegendNANA
08:00 11.7 9.4 86 24 1   101.19     LegendNANA
09:00 14.9 8.6 66 28 2   101.25     LegendNANA
10:00 16.4 6.9 53 31 6   101.27     LegendNANA
11:00 16.3 6.4 52 28 7   101.25     LegendNANA
12:00 17.7 5.5 44 24 6   101.26     LegendNANA
13:00 17.2 4.9 44 30 7   101.25     LegendNANA
14:00 17.1 4.2 42 25 11   101.26     LegendNANA
15:00 16.3 4.1 44 26 11   101.32     LegendNANA
16:00 14.6 4.4 50 25 8   101.35     LegendNANA
17:00 13.0 5.0 58 26 4   101.43     LegendNANA
18:00 10.7 5.8 72 24 4   101.48     LegendNANA
19:00 9.0 5.3 78 28 2   101.51     LegendNANA
20:00 9.5 6.6 82 25 6   101.56     LegendNANA
21:00 8.2 5.8 85 24 8   101.59     LegendNANA
22:00 8.4 4.9 78 1 3   101.63     LegendNANA
23:00 7.8 4.8 82 25 8   101.68     LegendNANA

Notes on Data Quality.

Legend

  • E = Estimated
  • M = Missing
  • NA = Not Available
  • ‡ = Partner data that is not subject to review by the National Climate Archives
Date modified: